TimeCDT,TemperatureF,Dew PointF,Humidity,Sea Level PressureIn,VisibilityMPH,Wind Direction,Wind SpeedMPH,Gust SpeedMPH,PrecipitationIn,Events,Conditions,WindDirDegrees,DateUTC
12:15 AM,17.2,8.2,68,30.26,10.0,Calm,Calm,-,N/A,,Clear,0,2013-04-03 05:15:00
12:35 AM,14.9,7.9,74,30.26,10.0,Calm,Calm,-,N/A,,Clear,0,2013-04-03 05:35:00
12:55 AM,14.9,8.6,76,30.27,10.0,Calm,Calm,-,N/A,,Clear,0,2013-04-03 05:55:00
1:15 AM,14.9,10.4,82,30.27,10.0,Calm,Calm,-,N/A,,Clear,0,2013-04-03 06:15:00
1:35 AM,13.5,8.6,81,30.27,10.0,Calm,Calm,-,N/A,,Clear,0,2013-04-03 06:35:00
1:55 AM,14.0,8.8,80,30.28,10.0,Calm,Calm,-,N/A,,Clear,0,2013-04-03 06:55:00
2:15 AM,13.8,9.3,82,30.28,10.0,Calm,Calm,-,N/A,,Clear,0,2013-04-03 07:15:00
2:35 AM,12.7,8.8,84,30.28,10.0,Calm,Calm,-,N/A,,Clear,0,2013-04-03 07:35:00
2:55 AM,13.3,8.4,81,30.29,10.0,Calm,Calm,-,N/A,,Clear,0,2013-04-03 07:55:00
3:15 AM,13.6,11.1,90,30.29,10.0,Calm,Calm,-,N/A,,Clear,0,2013-04-03 08:15:00
3:35 AM,12.9,9.0,84,30.30,10.0,Calm,Calm,-,N/A,,Clear,0,2013-04-03 08:35:00
3:55 AM,9.7,6.3,86,30.30,10.0,Calm,Calm,-,N/A,,Clear,0,2013-04-03 08:55:00
4:15 AM,9.5,5.5,84,30.31,10.0,Calm,Calm,-,N/A,,Clear,0,2013-04-03 09:15:00
4:35 AM,11.1,6.6,82,30.31,10.0,Calm,Calm,-,N/A,,Clear,0,2013-04-03 09:35:00
4:55 AM,9.9,4.6,79,30.32,10.0,Calm,Calm,-,N/A,,Clear,0,2013-04-03 09:55:00
5:15 AM,9.5,5.0,82,30.32,10.0,Calm,Calm,-,N/A,,Clear,0,2013-04-03 10:15:00
5:35 AM,10.8,6.1,81,30.32,10.0,Calm,Calm,-,N/A,,Clear,0,2013-04-03 10:35:00
5:55 AM,11.1,6.8,83,30.33,10.0,Calm,Calm,-,N/A,,Clear,0,2013-04-03 10:55:00
6:15 AM,10.2,6.3,84,30.34,10.0,Calm,Calm,-,N/A,,Clear,0,2013-04-03 11:15:00
6:35 AM,8.6,4.6,84,30.34,10.0,Calm,Calm,-,N/A,,Clear,0,2013-04-03 11:35:00
6:55 AM,8.8,4.5,83,30.35,10.0,Calm,Calm,-,N/A,,Clear,0,2013-04-03 11:55:00
7:15 AM,8.6,5.4,87,30.35,10.0,Calm,Calm,-,N/A,,Clear,0,2013-04-03 12:15:00
7:35 AM,11.3,6.8,82,30.36,10.0,Calm,Calm,-,N/A,,Clear,0,2013-04-03 12:35:00
7:55 AM,14.9,10.0,81,30.36,10.0,Calm,Calm,-,N/A,,Clear,0,2013-04-03 12:55:00
8:15 AM,16.2,10.9,80,30.36,10.0,Calm,Calm,-,N/A,,Clear,0,2013-04-03 13:15:00
8:35 AM,16.5,10.6,77,30.38,10.0,Calm,Calm,-,N/A,,Clear,0,2013-04-03 13:35:00
8:55 AM,16.9,10.6,76,30.38,10.0,Calm,Calm,-,N/A,,Clear,0,2013-04-03 13:55:00
9:15 AM,20.8,10.2,64,30.39,10.0,Calm,Calm,-,N/A,,Clear,0,2013-04-03 14:15:00
9:35 AM,22.8,9.7,57,30.39,10.0,Calm,Calm,-,N/A,,Clear,0,2013-04-03 14:35:00
9:55 AM,25.7,10.0,52,30.40,10.0,Calm,Calm,-,N/A,,Clear,0,2013-04-03 14:55:00
10:15 AM,25.3,8.4,49,30.41,10.0,Calm,Calm,-,N/A,,Clear,0,2013-04-03 15:15:00
10:35 AM,26.2,7.7,46,30.41,10.0,South,4.6,-,N/A,,Clear,170,2013-04-03 15:35:00
10:55 AM,27.3,9.1,46,30.41,10.0,SSW,4.6,-,N/A,,Clear,210,2013-04-03 15:55:00
11:15 AM,28.2,9.0,44,30.41,10.0,South,6.9,-,N/A,,Clear,190,2013-04-03 16:15:00
11:35 AM,29.1,9.3,44,30.40,10.0,WSW,4.6,-,N/A,,Clear,240,2013-04-03 16:35:00
11:55 AM,29.8,9.3,42,30.40,10.0,WSW,9.2,-,N/A,,Clear,240,2013-04-03 16:55:00
12:15 PM,30.7,10.2,42,30.39,10.0,SW,10.4,-,N/A,,Clear,220,2013-04-03 17:15:00
12:35 PM,31.1,9.5,41,30.39,10.0,SW,10.4,-,N/A,,Clear,220,2013-04-03 17:35:00
12:55 PM,31.6,9.3,39,30.38,10.0,WSW,5.8,-,N/A,,Clear,240,2013-04-03 17:55:00
1:15 PM,32.0,8.6,38,30.36,10.0,SW,5.8,-,N/A,,Clear,230,2013-04-03 18:15:00
1:35 PM,32.2,7.2,35,30.33,10.0,East,3.5,-,N/A,,Clear,90,2013-04-03 18:35:00
1:55 PM,32.2,11.3,42,30.31,10.0,East,6.9,-,N/A,,Clear,100,2013-04-03 18:55:00
2:15 PM,32.2,9.0,38,30.31,10.0,ESE,3.5,-,N/A,,Clear,120,2013-04-03 19:15:00
2:35 PM,34.3,6.8,32,30.30,10.0,Calm,Calm,-,N/A,,Clear,0,2013-04-03 19:35:00
2:55 PM,34.0,6.3,31,30.30,10.0,Calm,Calm,-,N/A,,Clear,0,2013-04-03 19:55:00
3:15 PM,35.6,6.3,29,30.29,10.0,Calm,Calm,-,N/A,,Clear,0,2013-04-03 20:15:00
3:35 PM,36.5,7.9,30,30.29,10.0,Calm,Calm,-,N/A,,Clear,0,2013-04-03 20:35:00
3:55 PM,36.0,5.2,28,30.28,10.0,Calm,Calm,-,N/A,,Clear,0,2013-04-03 20:55:00
4:15 PM,36.0,11.3,36,30.27,10.0,SSW,8.1,-,N/A,,Clear,200,2013-04-03 21:15:00
4:35 PM,36.1,13.1,39,30.26,10.0,SSW,10.4,-,N/A,,Clear,200,2013-04-03 21:35:00
4:55 PM,35.4,14.2,42,30.26,10.0,SSW,9.2,17.3,N/A,,Clear,210,2013-04-03 21:55:00
5:15 PM,35.6,12.6,39,30.25,10.0,SSW,12.7,17.3,N/A,,Clear,210,2013-04-03 22:15:00
5:35 PM,34.9,14.2,43,30.25,10.0,SSW,11.5,20.7,N/A,,Clear,200,2013-04-03 22:35:00
5:55 PM,34.7,14.4,43,30.24,10.0,SSW,13.8,-,N/A,,Clear,200,2013-04-03 22:55:00
6:15 PM,33.8,13.5,43,30.24,10.0,SSW,12.7,16.1,N/A,,Clear,210,2013-04-03 23:15:00
6:35 PM,33.1,13.1,44,30.24,10.0,SSW,11.5,-,N/A,,Clear,210,2013-04-03 23:35:00
6:55 PM,32.5,14.7,48,30.22,10.0,SSW,12.7,-,N/A,,Clear,210,2013-04-03 23:55:00
7:15 PM,32.0,14.7,49,30.22,10.0,SSW,6.9,-,N/A,,Clear,200,2013-04-04 00:15:00
7:35 PM,29.1,17.4,62,30.21,10.0,SSW,6.9,-,N/A,,Clear,200,2013-04-04 00:35:00
7:55 PM,29.3,16.0,58,30.20,10.0,South,8.1,-,N/A,,Clear,190,2013-04-04 00:55:00
8:15 PM,28.9,16.0,58,30.20,10.0,South,8.1,-,N/A,,Clear,190,2013-04-04 01:15:00
8:35 PM,28.2,16.3,61,30.19,10.0,South,9.2,-,N/A,,Clear,180,2013-04-04 01:35:00
8:55 PM,27.5,15.8,61,30.20,10.0,South,6.9,-,N/A,,Clear,180,2013-04-04 01:55:00
9:15 PM,27.5,16.3,63,30.20,10.0,South,8.1,-,N/A,,Clear,180,2013-04-04 02:15:00
9:35 PM,27.0,16.9,66,30.19,10.0,South,8.1,-,N/A,,Clear,180,2013-04-04 02:35:00
9:55 PM,26.8,17.2,67,30.17,10.0,South,10.4,-,N/A,,Clear,180,2013-04-04 02:55:00
10:15 PM,27.5,16.7,64,30.17,10.0,South,11.5,-,N/A,,Clear,180,2013-04-04 03:15:00
10:35 PM,27.5,17.1,65,30.16,10.0,South,10.4,-,N/A,,Clear,190,2013-04-04 03:35:00
10:55 PM,28.4,16.7,62,30.16,10.0,SSW,10.4,-,N/A,,Clear,200,2013-04-04 03:55:00
11:15 PM,28.0,16.7,62,30.16,10.0,SSW,9.2,-,N/A,,Clear,200,2013-04-04 04:15:00
11:35 PM,27.5,16.7,64,30.15,10.0,SSW,10.4,-,N/A,,Clear,200,2013-04-04 04:35:00
11:55 PM,28.6,16.9,62,30.13,10.0,SSW,11.5,-,N/A,,Clear,210,2013-04-04 04:55:00